Time,TemperatureF,DewpointF,PressureIn,WindDirection,WindDirectionDegrees,WindSpeedMPH,WindSpeedGustMPH,Humidity,HourlyPrecipIn,Conditions,Clouds,dailyrainin,SoftwareType,DateUTC
2013-02-19 00:01:00,12.0,2.0,-100.00,WSW,256,18.0,23.0,63,0.00,,,-99.99,,2013-02-19 07:01:00,
2013-02-19 00:11:00,12.0,2.0,-100.00,WSW,256,18.0,24.0,63,0.00,,,-99.99,,2013-02-19 07:11:00,
2013-02-19 00:21:00,13.0,2.0,-100.00,WSW,254,20.0,24.0,61,0.00,,,-99.99,,2013-02-19 07:21:00,
2013-02-19 00:31:00,13.0,2.0,-100.00,WSW,247,19.0,24.0,61,0.00,,,-99.99,,2013-02-19 07:31:00,
2013-02-19 00:41:00,13.0,2.0,-100.00,WSW,247,19.0,24.0,61,0.00,,,-99.99,,2013-02-19 07:41:00,
2013-02-19 00:51:00,13.0,1.0,-100.00,WSW,248,18.0,22.0,58,0.00,,,-99.99,,2013-02-19 07:51:00,
2013-02-19 01:01:00,14.0,1.0,-100.00,WSW,247,17.0,23.0,56,0.00,,,-99.99,,2013-02-19 08:01:00,
2013-02-19 01:11:00,14.0,1.0,-100.00,WSW,247,16.0,21.0,57,0.00,,,-99.99,,2013-02-19 08:11:00,
2013-02-19 01:21:00,14.0,1.0,-100.00,WSW,253,16.0,22.0,56,0.00,,,-99.99,,2013-02-19 08:21:00,
2013-02-19 01:31:00,13.0,0.0,-100.00,WSW,258,16.0,20.0,56,0.00,,,-99.99,,2013-02-19 08:31:00,
2013-02-19 01:42:00,-999.0,-99.9,-100.00,WSW,257,15.0,21.0,-999,-99.99,,,-99.99,,2013-02-19 08:42:00,
2013-02-19 01:52:00,13.0,1.0,-100.00,WSW,247,15.0,20.0,56,0.00,,,-99.99,,2013-02-19 08:52:00,
2013-02-19 02:01:00,14.0,0.0,-100.00,WSW,247,14.0,18.0,55,0.00,,,-99.99,,2013-02-19 09:01:00,
2013-02-19 02:11:00,13.0,0.0,-100.00,WSW,248,13.0,18.0,56,0.00,,,-99.99,,2013-02-19 09:11:00,
2013-02-19 02:21:00,12.0,0.0,-100.00,WSW,258,11.0,16.0,58,0.00,,,-99.99,,2013-02-19 09:21:00,
2013-02-19 02:31:00,13.0,0.0,-100.00,WSW,250,12.0,16.0,56,0.00,,,-99.99,,2013-02-19 09:31:00,
2013-02-19 02:41:00,13.0,0.0,-100.00,WSW,251,10.0,14.0,56,0.00,,,-99.99,,2013-02-19 09:41:00,
2013-02-19 02:52:00,14.0,-1.0,-100.00,WSW,250,11.0,15.0,50,0.00,,,-99.99,,2013-02-19 09:52:00,
2013-02-19 03:01:00,14.0,-1.0,-100.00,WSW,253,11.0,15.0,49,0.00,,,-99.99,,2013-02-19 10:01:00,
2013-02-19 03:11:00,14.0,-1.0,-100.00,WSW,258,9.0,14.0,50,-99.99,,,-99.99,,2013-02-19 10:11:00,
2013-02-19 03:21:00,13.0,0.0,-100.00,West,270,8.0,13.0,55,0.00,,,-99.99,,2013-02-19 10:21:00,
2013-02-19 03:31:00,12.0,0.0,-100.00,West,265,8.0,12.0,59,0.00,,,-99.99,,2013-02-19 10:31:00,
2013-02-19 03:41:00,13.0,0.0,-100.00,West,268,7.0,9.0,55,0.00,,,-99.99,,2013-02-19 10:41:00,
2013-02-19 03:51:00,13.0,-1.0,-100.00,West,270,7.0,9.0,54,0.00,,,-99.99,,2013-02-19 10:51:00,
2013-02-19 04:01:00,12.0,-1.0,-100.00,West,272,7.0,10.0,56,0.00,,,-99.99,,2013-02-19 11:01:00,
2013-02-19 04:21:00,13.0,-1.0,-100.00,West,270,6.0,9.0,53,0.00,,,-99.99,,2013-02-19 11:21:00,
2013-02-19 04:31:00,13.0,-2.0,-100.00,West,270,5.0,7.0,50,0.00,,,-99.99,,2013-02-19 11:31:00,
2013-02-19 04:41:00,14.0,-2.0,-100.00,West,264,6.0,7.0,49,0.00,,,-99.99,,2013-02-19 11:41:00,
2013-02-19 04:51:00,13.0,-2.0,-100.00,West,263,6.0,8.0,50,0.00,,,-99.99,,2013-02-19 11:51:00,
2013-02-19 05:01:00,12.0,-1.0,-100.00,West,274,7.0,9.0,54,0.00,,,-99.99,,2013-02-19 12:01:00,
2013-02-19 05:12:00,12.0,-1.0,-100.00,West,272,7.0,9.0,55,0.00,,,-99.99,,2013-02-19 12:12:00,
2013-02-19 05:21:00,14.0,-3.0,-100.00,West,272,4.0,7.0,45,0.00,,,-99.99,,2013-02-19 12:21:00,
2013-02-19 05:32:00,14.0,-2.0,-100.00,West,271,4.0,7.0,49,0.00,,,-99.99,,2013-02-19 12:32:00,
2013-02-19 05:41:00,12.0,-2.0,-100.00,West,275,6.0,7.0,53,0.00,,,-99.99,,2013-02-19 12:41:00,
2013-02-19 05:52:00,13.0,-3.0,-100.00,WNW,284,6.0,8.0,48,0.00,,,-99.99,,2013-02-19 12:52:00,
2013-02-19 06:01:00,15.0,-5.0,-100.00,West,274,4.0,6.0,39,0.00,,,-99.99,,2013-02-19 13:01:00,
2013-02-19 06:22:00,15.0,-6.0,-100.00,West,270,4.0,6.0,38,0.00,,,-99.99,,2013-02-19 13:22:00,
2013-02-19 06:31:00,16.0,-6.0,-100.00,West,260,4.0,6.0,37,0.00,,,-99.99,,2013-02-19 13:31:00,
2013-02-19 06:41:00,18.0,-11.0,-100.00,WSW,256,4.0,7.0,27,0.00,,,-99.99,,2013-02-19 13:41:00,
2013-02-19 06:52:00,18.0,-9.0,-100.00,WSW,246,5.0,7.0,28,0.00,,,-99.99,,2013-02-19 13:52:00,
2013-02-19 07:01:00,18.0,-9.0,-100.00,West,263,4.0,7.0,29,0.00,,,-99.99,,2013-02-19 14:01:00,
2013-02-19 07:11:00,17.0,-9.0,-100.00,West,260,4.0,7.0,29,0.00,,,-99.99,,2013-02-19 14:11:00,
2013-02-19 07:21:00,19.0,-13.0,-100.00,SW,233,4.0,6.0,23,0.00,,,-99.99,,2013-02-19 14:21:00,
2013-02-19 07:32:00,19.0,-12.0,-100.00,WSW,244,4.0,6.0,24,0.00,,,-99.99,,2013-02-19 14:32:00,
2013-02-19 07:41:00,18.0,-11.0,-100.00,WSW,258,4.0,6.0,26,0.00,,,-99.99,,2013-02-19 14:41:00,
2013-02-19 07:52:00,19.0,-13.0,-100.00,West,261,4.0,6.0,23,0.00,,,-99.99,,2013-02-19 14:52:00,
2013-02-19 08:01:00,18.0,-11.0,-100.00,WSW,256,4.0,6.0,25,0.00,,,-99.99,,2013-02-19 15:01:00,
2013-02-19 08:11:00,19.0,-12.0,-100.00,WSW,254,5.0,6.0,24,0.00,,,-99.99,,2013-02-19 15:11:00,
2013-02-19 08:21:00,19.0,-12.0,-100.00,West,268,4.0,7.0,24,0.00,,,-99.99,,2013-02-19 15:21:00,
2013-02-19 08:31:00,19.0,-12.0,-100.00,West,272,4.0,6.0,24,0.00,,,-99.99,,2013-02-19 15:31:00,
2013-02-19 08:41:00,19.0,-12.0,-100.00,West,261,4.0,5.0,24,0.00,,,-99.99,,2013-02-19 15:41:00,
2013-02-19 08:52:00,20.0,-12.0,-100.00,West,271,4.0,7.0,23,0.00,,,-99.99,,2013-02-19 15:52:00,
2013-02-19 09:01:00,19.0,-11.0,-100.00,West,264,4.0,5.0,25,0.00,,,-99.99,,2013-02-19 16:01:00,
2013-02-19 09:11:00,20.0,-13.0,-100.00,West,260,4.0,6.0,22,0.00,,,-99.99,,2013-02-19 16:11:00,
2013-02-19 09:21:00,20.0,-12.0,-100.00,West,271,4.0,6.0,23,0.00,,,-99.99,,2013-02-19 16:21:00,
2013-02-19 09:31:00,22.0,-14.0,-100.00,SW,232,5.0,7.0,20,0.00,,,-99.99,,2013-02-19 16:31:00,
2013-02-19 09:41:00,22.0,-15.0,-100.00,WSW,244,4.0,7.0,18,0.00,,,-99.99,,2013-02-19 16:41:00,
2013-02-19 09:51:00,24.0,-17.0,-100.00,SW,223,3.0,4.0,15,0.00,,,-99.99,,2013-02-19 16:51:00,
2013-02-19 10:01:00,26.0,-12.0,-100.00,WSW,256,4.0,5.0,18,0.00,,,-99.99,,2013-02-19 17:01:00,
2013-02-19 10:11:00,25.0,-12.0,-100.00,West,264,4.0,6.0,18,0.00,,,-99.99,,2013-02-19 17:11:00,
2013-02-19 10:21:00,24.0,-9.0,-100.00,WSW,244,3.0,6.0,22,0.00,,,-99.99,,2013-02-19 17:21:00,
2013-02-19 10:31:00,25.0,-6.0,-100.00,WSW,253,4.0,7.0,24,0.00,,,-99.99,,2013-02-19 17:31:00,
2013-02-19 10:41:00,26.0,-6.0,-100.00,West,265,4.0,6.0,24,0.00,,,-99.99,,2013-02-19 17:41:00,
2013-02-19 10:51:00,26.0,-7.0,-100.00,WSW,256,5.0,7.0,24,0.00,,,-99.99,,2013-02-19 17:51:00,
2013-02-19 11:01:00,26.0,-6.0,-100.00,WSW,251,4.0,7.0,24,0.00,,,-99.99,,2013-02-19 18:01:00,
2013-02-19 11:11:00,27.0,-11.0,-100.00,WSW,244,5.0,8.0,19,0.00,,,-99.99,,2013-02-19 18:11:00,
2013-02-19 11:21:00,28.0,-10.0,-100.00,West,261,6.0,9.0,18,0.00,,,-99.99,,2013-02-19 18:21:00,
2013-02-19 11:31:00,28.0,-12.0,-100.00,West,260,6.0,9.0,16,0.00,,,-99.99,,2013-02-19 18:31:00,
2013-02-19 11:41:00,29.0,-9.0,-100.00,WSW,250,7.0,8.0,18,0.00,,,-99.99,,2013-02-19 18:41:00,
2013-02-19 11:51:00,30.0,-6.0,-100.00,West,260,6.0,8.0,21,0.00,,,-99.99,,2013-02-19 18:51:00,
2013-02-19 12:01:00,31.0,-4.0,-100.00,West,263,6.0,9.0,21,0.00,,,-99.99,,2013-02-19 19:01:00,
2013-02-19 12:11:00,31.0,-5.0,-100.00,West,264,6.0,9.0,20,0.00,,,-99.99,,2013-02-19 19:11:00,
2013-02-19 12:21:00,31.0,-3.0,-100.00,WNW,289,4.0,7.0,22,0.00,,,-99.99,,2013-02-19 19:21:00,
2013-02-19 12:31:00,31.0,-1.0,-100.00,WNW,296,3.0,7.0,24,0.00,,,-99.99,,2013-02-19 19:31:00,
2013-02-19 12:41:00,30.0,-3.0,-100.00,WNW,289,4.0,8.0,23,0.00,,,-99.99,,2013-02-19 19:41:00,
2013-02-19 12:51:00,32.0,0.0,-100.00,WNW,301,4.0,9.0,26,0.00,,,-99.99,,2013-02-19 19:51:00,
2013-02-19 13:01:00,34.0,1.0,-100.00,West,281,4.0,7.0,24,0.00,,,-99.99,,2013-02-19 20:01:00,
2013-02-19 13:11:00,33.0,1.0,-100.00,WNW,287,4.0,7.0,24,0.00,,,-99.99,,2013-02-19 20:11:00,
2013-02-19 13:21:00,35.0,3.0,-100.00,West,264,2.0,7.0,26,0.00,,,-99.99,,2013-02-19 20:21:00,
2013-02-19 13:31:00,35.0,2.0,-100.00,WSW,240,3.0,7.0,24,0.00,,,-99.99,,2013-02-19 20:31:00,
2013-02-19 13:41:00,35.0,2.0,-100.00,West,278,4.0,8.0,24,0.00,,,-99.99,,2013-02-19 20:41:00,
2013-02-19 13:52:00,34.0,2.0,-100.00,WNW,296,3.0,8.0,24,0.00,,,-99.99,,2013-02-19 20:52:00,
2013-02-19 14:01:00,35.0,3.0,-100.00,WSW,256,3.0,7.0,25,0.00,,,-99.99,,2013-02-19 21:01:00,
2013-02-19 14:11:00,34.0,3.0,-100.00,WSW,241,5.0,10.0,26,0.00,,,-99.99,,2013-02-19 21:11:00,
2013-02-19 14:21:00,33.0,5.0,-100.00,WSW,257,6.0,11.0,30,0.00,,,-99.99,,2013-02-19 21:21:00,
2013-02-19 14:31:00,35.0,6.0,-100.00,SSW,196,3.0,8.0,29,0.00,,,-99.99,,2013-02-19 21:31:00,
2013-02-19 14:42:00,30.0,9.0,-100.00,East,92,4.0,8.0,41,0.00,,,-99.99,,2013-02-19 21:42:00,
2013-02-19 14:51:00,31.0,8.0,-100.00,East,95,4.0,7.0,38,0.00,,,-99.99,,2013-02-19 21:51:00,
2013-02-19 15:01:00,30.0,8.0,-100.00,East,95,4.0,9.0,39,0.00,,,-99.99,,2013-02-19 22:01:00,
2013-02-19 15:11:00,29.0,7.0,-100.00,East,97,6.0,9.0,38,0.00,,,-99.99,,2013-02-19 22:11:00,
2013-02-19 15:21:00,30.0,8.0,-100.00,East,90,4.0,7.0,40,0.00,,,-99.99,,2013-02-19 22:21:00,
2013-02-19 15:31:00,34.0,7.0,-100.00,NNW,335,2.0,10.0,32,0.00,,,-99.99,,2013-02-19 22:31:00,
2013-02-19 15:41:00,34.0,7.0,-100.00,WSW,254,6.0,13.0,32,0.00,,,-99.99,,2013-02-19 22:41:00,
2013-02-19 15:51:00,34.0,8.0,-100.00,West,268,6.0,11.0,33,0.00,,,-99.99,,2013-02-19 22:51:00,
2013-02-19 16:01:00,34.0,8.0,-100.00,West,268,6.0,11.0,32,0.00,,,-99.99,,2013-02-19 23:01:00,
2013-02-19 16:11:00,33.0,8.0,-100.00,West,265,6.0,9.0,34,0.00,,,-99.99,,2013-02-19 23:11:00,
2013-02-19 16:21:00,34.0,7.0,-100.00,West,267,4.0,10.0,32,0.00,,,-99.99,,2013-02-19 23:21:00,
2013-02-19 16:31:00,33.0,8.0,-100.00,West,277,3.0,7.0,34,0.00,,,-99.99,,2013-02-19 23:31:00,
2013-02-19 16:42:00,-999.0,-99.9,-100.00,WNW,296,4.0,9.0,-999,-99.99,,,-99.99,,2013-02-19 23:42:00,
2013-02-19 16:51:00,30.0,9.0,-100.00,NW,304,7.0,12.0,41,0.00,,,-99.99,,2013-02-19 23:51:00,
2013-02-19 17:01:00,29.0,9.0,-100.00,WNW,298,7.0,12.0,41,0.00,,,-99.99,,2013-02-20 00:01:00,
2013-02-19 17:11:00,29.0,8.0,-100.00,WNW,289,7.0,14.0,41,0.00,,,-99.99,,2013-02-20 00:11:00,
2013-02-19 17:21:00,28.0,9.0,-100.00,West,281,7.0,13.0,44,0.00,,,-99.99,,2013-02-20 00:21:00,
2013-02-19 17:31:00,28.0,10.0,-100.00,West,280,7.0,12.0,45,0.00,,,-99.99,,2013-02-20 00:31:00,
2013-02-19 17:41:00,28.0,11.0,-100.00,WNW,287,7.0,12.0,48,0.00,,,-99.99,,2013-02-20 00:41:00,
2013-02-19 17:51:00,26.0,10.0,-100.00,WNW,292,6.0,12.0,50,0.00,,,-99.99,,2013-02-20 00:51:00,
2013-02-19 18:02:00,25.0,11.0,-100.00,WNW,292,7.0,10.0,55,0.00,,,-99.99,,2013-02-20 01:02:00,
2013-02-19 18:11:00,25.0,11.0,-100.00,WNW,288,7.0,12.0,55,0.00,,,-99.99,,2013-02-20 01:11:00,
2013-02-19 18:21:00,24.0,12.0,-100.00,WNW,292,7.0,11.0,58,0.00,,,-99.99,,2013-02-20 01:21:00,
2013-02-19 18:31:00,24.0,12.0,-100.00,WNW,287,6.0,11.0,59,0.00,,,-99.99,,2013-02-20 01:31:00,
2013-02-19 18:51:00,24.0,12.0,-100.00,NW,311,7.0,11.0,61,0.00,,,-99.99,,2013-02-20 01:51:00,
2013-02-19 19:01:00,23.0,13.0,-100.00,WNW,294,4.0,9.0,63,0.00,,,-99.99,,2013-02-20 02:01:00,
2013-02-19 19:11:00,23.0,12.0,-100.00,WNW,289,4.0,9.0,64,0.00,,,-99.99,,2013-02-20 02:11:00,
2013-02-19 19:21:00,23.0,13.0,-100.00,WNW,299,9.0,13.0,65,0.00,,,-99.99,,2013-02-20 02:21:00,
2013-02-19 19:31:00,22.0,13.0,-100.00,WNW,298,8.0,12.0,67,0.00,,,-99.99,,2013-02-20 02:31:00,
2013-02-19 19:41:00,22.0,13.0,-100.00,West,271,6.0,12.0,68,0.00,,,-99.99,,2013-02-20 02:41:00,
2013-02-19 19:52:00,22.0,13.0,-100.00,West,274,6.0,12.0,67,0.00,,,-99.99,,2013-02-20 02:52:00,
2013-02-19 20:01:00,22.0,12.0,-100.00,West,260,7.0,11.0,67,0.00,,,-99.99,,2013-02-20 03:01:00,
2013-02-19 20:11:00,22.0,12.0,-100.00,West,272,7.0,11.0,66,0.00,,,-99.99,,2013-02-20 03:11:00,
2013-02-19 20:21:00,22.0,13.0,-100.00,West,274,7.0,11.0,67,0.00,,,-99.99,,2013-02-20 03:21:00,
2013-02-19 20:31:00,22.0,13.0,-100.00,West,271,7.0,12.0,68,0.00,,,-99.99,,2013-02-20 03:31:00,
2013-02-19 20:41:00,22.0,13.0,-100.00,West,271,8.0,12.0,68,0.00,,,-99.99,,2013-02-20 03:41:00,
2013-02-19 20:51:00,22.0,13.0,-100.00,West,264,9.0,12.0,67,0.00,,,-99.99,,2013-02-20 03:51:00,
2013-02-19 21:01:00,21.0,13.0,-100.00,West,267,9.0,12.0,68,0.00,,,-99.99,,2013-02-20 04:01:00,
2013-02-19 21:11:00,21.0,13.0,-100.00,West,267,9.0,12.0,68,0.00,,,-99.99,,2013-02-20 04:11:00,
2013-02-19 21:21:00,21.0,13.0,-100.00,West,277,7.0,12.0,69,0.00,,,-99.99,,2013-02-20 04:21:00,
2013-02-19 21:32:00,-999.0,-99.9,-100.00,West,278,9.0,15.0,-999,-99.99,,,-99.99,,2013-02-20 04:32:00,
2013-02-19 21:51:00,21.0,13.0,-100.00,West,277,9.0,12.0,68,0.00,,,-99.99,,2013-02-20 04:51:00,
2013-02-19 22:01:00,21.0,13.0,-100.00,West,277,7.0,11.0,68,0.00,,,-99.99,,2013-02-20 05:01:00,
2013-02-19 22:12:00,21.0,12.0,-100.00,West,275,7.0,11.0,68,0.00,,,-99.99,,2013-02-20 05:12:00,
2013-02-19 22:22:00,21.0,12.0,-100.00,West,278,8.0,12.0,68,0.00,,,-99.99,,2013-02-20 05:22:00,
2013-02-19 22:31:00,21.0,12.0,-100.00,West,272,8.0,13.0,69,0.00,,,-99.99,,2013-02-20 05:31:00,
2013-02-19 22:42:00,21.0,13.0,-100.00,West,267,9.0,12.0,69,0.00,,,-99.99,,2013-02-20 05:42:00,
2013-02-19 22:52:00,20.0,12.0,-100.00,West,264,9.0,12.0,70,0.00,,,-99.99,,2013-02-20 05:52:00,
2013-02-19 23:01:00,21.0,12.0,-100.00,West,267,8.0,12.0,70,0.00,,,-99.99,,2013-02-20 06:01:00,
2013-02-19 23:11:00,21.0,12.0,-100.00,West,263,9.0,12.0,69,0.00,,,-99.99,,2013-02-20 06:11:00,
2013-02-19 23:21:00,21.0,12.0,-100.00,West,267,7.0,11.0,69,0.00,,,-99.99,,2013-02-20 06:21:00,
2013-02-19 23:31:00,21.0,12.0,-100.00,West,265,8.0,11.0,69,0.00,,,-99.99,,2013-02-20 06:31:00,
2013-02-19 23:41:00,21.0,12.0,-100.00,West,271,7.0,10.0,68,0.00,,,-99.99,,2013-02-20 06:41:00,
2013-02-19 23:51:00,21.0,12.0,-100.00,WSW,256,9.0,11.0,67,0.00,,,-99.99,,2013-02-20 06:51:00,